RH
43 44 45 46 48 49 49 49 49 50 50 49 50 50 50 51 52 52 53 54 55 56 57 58 58 60 60 59 58 58 56 54 52 49 46 44 41 38 36 33 31 30 28 27 26 26 25 25 24 25 25 26 26 26 26 27 27 28 28 28 29 29 29 29 29 29 29 29 29 29 29 29 29 29 28 28 27 27 27 27 27 27 28 27 27 27
45 48 52 52 54 55 56 54 54 54 54 54 54 54 54 54 55 56 56 57 58 59 60 61 62 62 62 62 62 61 60 58 57 54 52 49 46 44 41 39 36 34 32 30 29 28 27 26 26 26 26 26 26 26 27 27 28 28 28 28 29 29 29 29 29 29 29 29 30 30 30 30 30 29 29 29 28 28 28 28 28 28 28 28 28 28
48 51 55 57 59 61 62 61 60 60 60 60 60 59 58 59 60 60 60 61 61 62 63 63 64 64 64 64 64 64 63 62 60 58 57 54 52 50 48 45 43 40 38 36 34 32 31 30 29 28 28 28 28 28 28 28 28 28 28 28 29 29 29 29 29 29 29 29 29 30 30 30 30 30 30 29 29 28 28 28 28 28 28 29 29 29
50 52 55 58 62 65 66 66 66 66 66 66 65 65 65 65 65 65 64 65 65 65 66 66 67 67 67 67 66 66 66 65 64 62 60 58 57 55 53 52 49 47 45 43 41 39 38 36 34 33 32 32 31 31 31 31 30 30 30 29 29 29 29 28 28 28 29 29 29 29 30 30 30 30 30 29 29 29 28 28 28 29 29 29 29 30
56 56 58 62 65 67 67 68 70 70 70 70 70 70 70 70 70 69 69 69 69 69 69 70 70 70 70 70 70 69 68 68 66 65 64 62 60 58 58 56 54 52 51 49 47 46 44 42 41 40 38 38 37 36 36 35 34 33 32 31 30 30 29 29 28 28 28 28 29 29 29 30 30 30 30 29 29 29 28 28 29 29 29 30 30 30
65 65 65 68 69 69 69 71 71 71 71 71 71 71 72 72 72 72 72 71 71 72 72 72 72 73 73 73 73 72 71 70 69 68 66 65 63 62 60 59 58 56 54 53 52 51 50 48 47 46 45 44 44 43 42 41 39 38 36 34 32 31 30 30 29 29 28 29 29 29 29 30 30 30 29 29 29 29 28 28 29 29 30 30 30 31
74 74 74 74 74 73 73 72 71 70 69 69 69 69 69 69 70 70 70 71 72 72 72 72 73 73 74 74 74 74 74 72 71 70 69 68 66 65 63 61 60 58 57 56 56 55 54 53 52 51 50 50 50 49 48 46 44 42 40 37 35 34 32 31 30 30 29 29 29 29 30 30 30 30 29 29 29 28 28 28 29 29 30 30 31 32
78 78 77 77 77 76 76 74 71 69 68 68 69 69 69 68 68 68 69 70 70 71 72 72 72 72 73 74 74 74 74 73 72 71 70 69 69 68 66 64 61 60 60 60 59 58 58 57 56 55 54 54 54 53 52 50 48 45 42 40 38 36 34 33 32 31 30 30 30 30 30 30 30 30 29 29 29 28 28 28 29 30 30 31 32 33
78 78 78 78 78 78 78 76 73 70 69 69 70 70 70 70 69 68 69 69 69 69 70 70 71 71 71 72 72 73 72 71 70 70 70 70 70 70 68 66 64 63 62 63 63 62 61 60 58 58 57 56 56 55 54 52 50 48 45 42 40 38 36 35 34 32 31 31 30 30 30 30 30 30 29 29 29 29 29 29 30 30 31 32 33 35
77 78 78 78 78 78 78 76 74 72 70 70 70 71 71 71 70 69 68 67 65 64 64 65 66 66 66 66 68 69 69 68 68 67 68 69 70 71 70 68 67 66 66 67 67 66 64 62 61 60 58 57 56 55 54 52 50 48 46 44 42 40 38 37 35 34 33 32 32 31 31 30 30 30 30 30 30 30 30 30 30 31 32 34 35 37
76 76 76 77 77 78 78 77 75 72 70 70 70 70 70 70 68 67 64 61 59 58 57 57 57 57 58 58 60 63 65 64 64 64 64 68 70 71 71 69 68 68 70 70 70 69 67 64 62 60 58 56 55 54 53 52 51 49 48 46 44 42 40 38 37 35 34 33 32 32 32 31 31 31 31 31 31 31 31 32 32 33 34 36 37 39
75 74 74 74 76 76 76 76 75 73 70 70 69 68 67 65 64 62 60 58 58 57 56 54 53 52 52 53 55 58 61 62 62 62 64 68 70 72 71 69 69 69 71 71 71 70 68 65 62 60 57 55 54 53 52 52 52 51 50 48 46 44 42 40 38 36 35 34 33 33 32 32 32 32 32 32 33 33 33 33 34 35 36 37 38 40
73 73 73 72 73 73 74 74 73 72 69 68 66 64 62 61 61 61 61 62 62 63 63 61 60 58 56 56 58 60 62 63 63 64 66 70 72 73 72 70 70 70 72 72 72 70 69 66 62 59 56 54 52 51 51 52 52 52 52 50 48 46 43 40 39 37 36 35 34 34 34 34 34 34 34 34 35 35 35 35 35 36 36 38 39 40
70 70 70 69 69 69 69 70 70 69 68 66 64 63 63 64 66 66 67 69 71 72 74 73 72 70 68 67 67 67 68 68 68 69 71 73 74 74 74 72 71 71 72 73 72 71 69 66 63 59 56 53 51 50 50 52 53 54 54 53 51 48 44 42 40 38 36 36 35 35 35 36 36 36 37 37 37 36 36 36 36 36 36 36 38 39
62 62 62 62 62 62 64 65 67 68 68 68 68 68 69 70 71 72 73 74 76 76 77 76 76 76 76 75 74 73 73 72 71 72 74 76 76 76 75 74 72 72 74 74 73 72 70 68 64 60 56 52 50 49 49 51 52 54 56 55 53 50 46 43 40 38 36 36 36 36 37 38 38 39 39 39 38 38 37 36 35 34 34 34 36 37
54 54 55 55 57 59 61 65 68 70 71 71 71 71 72 72 72 73 74 74 74 74 75 75 76 76 76 76 76 74 73 71 70 70 72 75 76 76 74 74 74 74 76 76 74 72 70 68 65 60 56 53 50 48 48 49 51 54 56 57 56 53 49 45 42 39 37 36 37 38 39 40 40 41 41 40 39 38 36 34 32 30 30 32 33 35
53 54 56 58 60 63 66 70 73 74 74 72 72 71 71 72 72 72 71 71 71 71 71 71 72 74 74 74 74 74 72 71 68 66 64 67 71 74 74 74 74 76 77 77 75 73 70 69 66 62 58 53 50 48 47 48 50 52 55 57 57 55 52 47 43 40 37 37 38 39 40 42 42 42 42 40 39 36 33 30 28 27 27 30 32 34
63 64 66 68 70 71 73 75 76 74 74 73 72 70 70 70 69 68 67 65 65 65 65 66 67 68 68 69 70 72 73 71 68 63 58 57 60 64 69 72 74 76 76 76 74 72 70 70 66 62 58 54 50 48 47 47 48 51 54 57 58 58 54 50 45 41 39 38 38 40 42 43 44 43 42 40 37 34 29 26 24 24 26 30 33 35
74 75 76 76 75 75 76 76 75 74 74 72 71 70 68 66 64 62 60 58 58 57 58 60 61 60 60 60 62 65 70 70 69 66 62 58 56 57 60 65 70 74 77 76 74 72 70 69 66 63 58 54 51 49 48 48 48 50 54 57 59 60 58 53 48 44 40 39 40 41 43 44 45 44 42 38 34 30 26 23 23 24 27 32 35 38
77 77 76 76 76 75 74 74 74 73 72 71 69 67 64 61 60 58 57 54 52 51 51 54 55 55 54 52 53 58 64 66 68 69 68 64 60 58 58 60 65 71 77 76 74 72 70 68 66 62 58 54 52 50 49 49 50 52 54 58 60 61 60 56 52 47 43 42 42 42 44 46 46 44 40 36 31 26 23 22 24 26 31 35 39 42
76 76 76 75 75 74 74 73 73 72 71 68 66 63 60 59 58 57 54 52 51 50 49 51 51 50 48 47 48 52 58 64 67 68 68 66 62 60 58 58 62 67 74 75 74 73 71 69 66 62 58 54 52 52 52 52 52 53 55 58 60 61 62 59 55 50 46 44 43 44 46 47 46 43 39 33 28 24 23 24 26 30 35 39 42 44
76 75 74 74 74 74 73 72 71 69 67 65 62 60 58 58 57 56 53 53 52 51 51 50 49 48 46 45 46 51 58 63 66 68 68 66 63 60 58 59 61 65 69 72 73 72 71 69 66 62 57 54 53 53 54 54 55 55 56 58 60 61 62 60 58 54 49 47 46 47 49 48 46 42 37 31 27 25 24 27 30 35 39 42 44 44
74 74 73 72 72 72 72 70 68 65 62 60 58 58 56 56 55 54 53 53 53 53 52 52 52 51 50 49 51 55 60 63 66 68 69 67 64 61 60 60 60 62 65 68 70 70 69 67 64 60 57 54 53 53 54 55 56 57 57 58 60 61 62 61 60 56 52 50 50 50 51 49 45 40 35 30 28 27 28 31 34 38 42 43 42 40
74 73 71 70 70 70 69 67 65 62 59 57 55 54 52 52 52 52 54 54 56 57 58 59 60 60 58 58 58 60 62 64 66 69 70 68 66 64 63 61 60 60 60 62 64 64 64 62 60 57 54 52 52 52 54 56 57 58 58 60 60 61 62 62 60 58 55 53 53 53 52 48 43 38 34 31 30 30 31 34 37 40 42 41 38 34
74 72 70 69 68 66 65 63 61 59 57 54 51 49 48 48 49 52 55 58 61 64 66 68 68 68 66 64 63 62 62 63 66 69 70 71 71 70 68 65 62 58 57 57 58 58 58 57 54 52 50 49 50 52 54 57 58 60 60 61 62 62 63 63 62 60 58 57 56 54 51 46 42 37 34 33 32 32 33 35 38 40 40 37 32 27
72 71 69 68 65 62 60 58 58 56 54 51 49 47 46 46 49 52 58 62 66 69 72 72 72 71 70 68 65 63 62 62 64 67 70 73 74 74 71 68 63 58 54 54 54 55 56 53 50 48 47 49 51 53 56 58 60 61 62 63 64 65 66 65 64 62 60 60 58 54 49 43 40 36 34 33 32 32 33 35 37 38 36 32 26 22
72 70 68 65 62 58 55 54 52 51 51 50 49 49 49 51 54 58 62 64 68 70 72 74 74 73 71 70 68 66 64 64 64 66 69 72 74 74 71 69 64 58 55 55 56 56 56 54 51 50 50 52 54 56 58 60 61 62 64 66 67 68 68 68 66 64 63 60 56 51 45 40 38 35 34 32 31 31 32 34 35 34 31 25 20 17
70 68 65 61 58 54 52 50 50 50 51 52 53 55 57 60 63 67 68 68 70 72 74 74 76 75 74 74 72 70 69 68 67 67 69 71 73 72 70 68 65 62 60 60 60 60 59 57 56 55 55 57 58 58 60 60 62 64 66 67 68 69 68 68 66 64 61 57 52 46 41 38 35 33 31 29 29 30 32 33 32 29 24 20 16 13
66 64 61 59 57 56 55 55 55 56 56 58 60 62 64 68 72 74 74 73 74 75 76 76 77 77 77 76 75 74 73 72 71 70 70 72 73 72 70 69 67 66 66 66 66 64 62 60 60 60 60 60 60 60 60 60 62 63 65 66 66 66 65 64 62 59 56 50 45 40 36 34 31 29 27 27 27 28 30 30 27 23 18 15 12 11
64 63 62 62 62 63 63 64 64 65 65 66 68 69 71 73 76 76 76 76 76 77 78 78 78 78 77 77 77 77 76 74 73 72 72 74 74 73 71 70 69 70 70 70 70 68 66 64 63 63 64 62 61 60 59 60 60 61 62 62 62 61 60 58 55 52 47 42 38 34 31 28 26 24 24 24 26 27 27 25 22 18 14 12 10 10
67 68 68 69 69 70 71 72 72 72 73 74 74 74 76 76 77 77 78 77 77 78 78 78 78 78 77 78 78 77 77 75 74 73 74 76 76 74 73 72 72 71 71 72 72 70 68 66 65 64 64 62 61 59 58 58 58 58 58 58 56 55 53 50 47 43 39 35 32 28 24 22 21 20 21 23 24 24 23 20 17 13 11 10 8 8
69 70 71 72 72 72 73 74 74 76 76 77 77 78 78 78 78 78 78 78 78 78 78 78 78 78 77 77 77 76 76 74 73 74 75 76 76 74 74 74 74 73 72 72 72 72 70 68 66 65 64 62 60 58 58 58 57 56 54 52 50 47 45 42 39 36 33 30 26 23 19 17 16 16 18 20 20 20 18 15 12 10 8 8 7 7
70 70 70 71 72 72 73 74 74 76 77 78 78 78 78 78 78 78 78 78 78 78 78 78 78 78 77 77 76 76 75 74 74 74 75 76 76 74 74 74 75 74 74 73 73 72 71 69 68 66 65 63 61 60 58 56 54 52 49 46 42 40 38 36 34 32 30 26 22 18 14 12 12 13 14 16 16 14 13 10 9 8 7 7 6 6
69 69 69 70 70 71 72 73 74 76 77 78 78 78 78 78 78 78 78 78 78 78 78 78 78 78 77 77 77 76 76 74 74 74 75 76 76 76 74 76 76 75 74 74 73 72 71 70 68 68 66 65 62 60 57 54 50 46 43 40 36 34 32 31 30 29 27 24 19 14 11 10 9 10 10 11 10 10 8 8 6 6 6 6 5 5
68 67 67 68 69 70 72 73 74 76 77 78 78 78 78 78 78 78 78 78 78 78 78 78 78 78 77 77 77 77 76 75 74 74 76 76 76 76 76 76 76 75 75 74 74 73 72 71 70 69 68 66 62 58 54 49 44 40 37 34 32 30 29 28 28 28 26 22 17 12 8 7 6 6 7 7 7 6 6 5 5 4 4 4 4 4
65 65 66 68 69 71 72 74 75 76 77 78 78 78 78 78 78 78 78 78 78 78 78 78 78 78 77 77 77 76 76 74 74 75 76 76 76 76 76 76 75 75 75 74 74 73 72 72 70 69 68 64 60 54 48 43 39 35 32 30 29 28 27 27 28 27 26 21 17 12 8 6 5 4 4 4 4 4 3 3 3 3 3 3 3 3
64 65 66 69 71 73 74 76 77 77 78 78 78 78 78 78 78 78 78 78 78 78 78 78 77 77 77 76 76 76 76 74 74 76 76 76 76 76 76 76 74 74 74 74 74 73 72 72 70 68 65 60 54 48 42 38 35 32 30 28 27 27 26 27 27 26 24 22 18 14 10 8 6 4 3 3 2 2 2 2 2 2 2 2 2 2
64 66 68 71 74 76 77 78 78 78 78 78 78 78 78 78 78 78 78 78 78 77 77 77 77 77 76 76 76 76 75 74 75 76 76 76 76 76 76 76 75 74 74 74 74 73 72 72 70 66 62 56 50 44 40 36 33 31 29 28 27 26 26 26 26 26 24 22 19 16 13 11 8 7 5 4 3 2 2 2 2 2 2 2 2 2
64 67 70 73 75 76 77 78 78 78 78 78 77 77 77 77 78 78 78 78 77 77 77 77 76 76 76 76 76 76 75 75 76 76 76 76 76 76 76 76 76 75 75 74 74 73 73 71 69 65 60 54 48 44 40 37 34 32 30 28 27 26 26 26 25 24 23 22 20 18 16 14 12 11 9 8 6 5 4 3 3 3 3 3 3 3
66 68 71 74 76 76 77 77 78 78 78 78 78 77 77 77 78 78 78 78 78 77 77 77 76 76 76 76 76 76 75 75 75 76 76 76 76 76 76 76 76 76 76 75 74 74 73 71 68 64 59 54 50 46 43 40 38 35 32 30 29 28 26 26 24 24 23 22 20 19 18 17 16 15 13 12 10 9 8 7 6 6 5 5 5 6
67 69 72 74 74 76 76 76 77 77 78 78 78 78 78 78 78 78 78 78 78 78 77 77 77 76 76 76 76 76 75 75 76 76 76 76 76 76 76 76 76 76 76 76 74 74 73 72 69 66 62 58 54 51 47 45 42 40 37 35 33 31 30 28 26 25 24 23 22 21 20 19 18 17 16 15 14 13 12 10 10 9 8 8 8 8
68 70 71 73 74 75 76 76 76 76 77 78 78 78 78 78 78 78 78 78 78 78 78 78 78 77 77 76 76 76 76 76 76 76 76 76 76 77 77 77 77 76 76 76 76 75 74 73 72 70 67 64 61 57 54 51 48 46 43 41 39 37 34 32 30 28 27 26 24 23 22 21 20 19 18 17 16 15 14 13 12 12 12 11 11 11
70 71 71 72 74 74 74 76 76 76 76 77 78 78 78 78 78 78 78 78 77 77 77 78 78 78 77 77 76 76 76 76 76 76 76 76 76 77 77 77 77 77 77 77 77 77 76 76 76 74 74 72 68 65 61 58 56 54 51 48 46 44 42 39 36 34 32 30 28 27 26 24 23 22 20 19 18 17 16 15 14 14 13 13 13 12
73 72 72 73 74 74 74 76 76 76 76 77 77 78 78 78 78 78 78 78 77 77 77 78 77 77 77 77 77 76 76 76 76 76 76 76 76 77 77 77 77 77 77 77 77 77 77 77 77 77 76 76 74 72 70 66 64 61 58 56 54 52 49 46 44 41 38 36 34 32 30 28 26 25 24 22 20 19 18 17 16 16 15 14 14 14
74 74 74 74 74 76 76 76 76 77 77 77 77 78 78 78 78 78 78 78 77 77 77 77 77 77 77 77 77 77 76 76 76 76 76 76 76 76 77 77 77 77 77 77 77 77 77 77 77 77 77 76 76 76 74 71 69 67 65 63 61 59 57 54 51 48 46 43 40 38 36 34 32 30 28 26 24 23 22 20 19 18 17 16 16 15
76 76 76 76 76 76 77 76 76 77 77 78 78 78 78 78 78 78 78 78 77 77 77 77 77 77 77 76 76 77 77 77 77 76 76 76 76 77 77 77 77 77 77 77 77 77 77 77 77 77 77 76 76 76 74 73 71 70 69 67 66 64 62 60 58 55 52 50 48 45 43 40 39 36 34 32 30 28 26 25 24 22 21 20 18 18
77 77 77 76 76 76 76 76 76 77 77 77 77 77 78 78 78 78 77 77 77 77 77 77 77 77 77 76 76 77 77 77 77 77 77 77 77 77 77 77 77 77 77 77 77 77 78 78 78 77 77 77 76 76 74 73 72 71 70 70 69 68 67 64 62 60 58 56 54 52 49 47 45 43 42 40 38 36 33 31 29 28 26 24 23 21
76 76 76 76 76 76 76 76 76 76 77 77 77 77 77 77 77 77 77 77 77 77 77 77 77 77 76 76 76 76 77 77 77 77 77 77 77 77 77 77 77 77 77 77 77 77 78 78 77 77 77 77 76 76 74 73 72 72 71 71 70 70 68 66 64 62 60 59 58 56 54 52 51 49 48 46 44 42 40 38 36 34 32 30 28 26
76 76 76 76 76 76 76 76 76 76 76 76 76 76 77 77 77 77 77 77 77 77 77 77 77 77 76 76 76 76 76 77 77 77 77 77 77 77 77 77 77 77 77 77 77 77 77 77 77 76 76 76 76 76 74 74 73 72 72 71 71 70 69 68 66 64 62 61 60 58 57 55 54 53 51 50 48 47 45 43 41 39 37 35 34 32
76 76 76 76 76 76 76 76 76 76 76 76 76 76 76 76 76 76 76 76 76 76 76 76 76 76 76 76 76 76 76 76 76 76 76 76 76 76 77 77 76 76 76 77 77 77 77 76 76 76 76 75 75 74 74 74 73 73 72 72 71 70 70 68 66 64 62 60 60 58 56 55 54 52 51 50 49 48 46 45 43 42 40 38 37 36
75 75 76 76 76 76 76 76 76 76 76 76 75 75 75 76 76 76 76 76 76 76 76 76 76 76 76 76 76 76 76 76 76 76 76 76 76 76 76 76 76 76 76 76 76 76 76 76 76 74 74 74 74 74 74 73 72 72 71 70 69 68 66 64 62 60 58 56 55 53 52 50 49 48 47 46 45 44 43 42 42 40 39 38 37 36
Wind_Speed
65 65 65 64 64 64 65 65 65 64 65 65 65 64 64 64 64 64 64 64 64 64 64 64 64 63 63 63 63 63 63 62 62 62 62 62 62 62 61 61 61 61 61 61 61 60 60 60 60 60 60 59 59 59 59 59 59 58 58 58 58 57 57 57 57 57 57 57 57 57 57 57 57 57 57 57 57 57 57 57 58 58 58 58 58 58
65 64 64 63 63 63 64 64 64 63 64 64 64 64 64 63 63 63 63 63 63 63 63 63 63 63 63 63 63 63 63 63 62 62 62 62 62 62 62 61 61 61 61 61 61 61 60 60 60 60 60 60 60 60 59 59 59 59 59 58 58 58 57 57 57 57 57 57 57 57 57 56 56 56 57 57 57 57 57 57 57 57 58 58 58 58
63 63 63 63 63 63 63 64 63 63 63 64 63 63 63 63 63 63 63 63 63 63 63 63 63 63 63 63 63 63 63 63 63 62 62 62 62 62 62 62 62 61 61 61 61 61 61 61 61 61 61 60 60 60 60 60 60 59 59 59 59 58 58 58 57 57 57 57 57 57 57 57 56 56 56 57 57 57 57 57 57 57 58 58 58 58
62 62 63 63 62 62 63 63 63 63 63 63 63 63 62 62 63 63 63 62 62 63 63 63 63 63 63 63 63 63 63 63 63 63 62 62 62 62 62 62 62 62 62 62 62 61 61 61 61 61 61 61 61 61 61 60 60 60 60 59 59 59 58 58 58 58 58 57 57 57 57 57 57 57 57 57 57 57 57 57 57 57 58 58 58 58
60 61 62 62 61 62 63 63 63 63 63 63 63 63 62 62 63 63 63 63 62 62 63 63 62 62 62 63 63 63 63 63 62 62 62 62 62 62 62 62 62 62 62 62 62 62 62 62 62 62 62 61 61 61 61 61 60 60 60 60 59 59 59 59 59 59 58 58 58 58 58 58 57 57 57 57 57 57 57 57 57 57 58 58 58 59
59 60 61 61 61 61 63 63 62 62 62 63 63 63 63 63 63 63 63 63 63 63 63 63 62 62 62 62 63 63 63 62 62 62 62 62 62 62 61 62 62 62 62 62 62 62 62 62 62 62 62 62 61 61 61 61 61 60 60 60 60 60 60 60 60 59 59 59 59 58 58 58 58 58 57 57 57 57 57 57 57 58 58 58 58 59
58 58 59 60 60 61 62 62 62 62 62 62 63 63 63 63 63 63 63 63 63 63 63 63 63 63 63 63 63 63 63 63 63 62 62 62 61 61 61 61 61 62 62 62 62 62 61 61 61 61 61 61 61 61 61 61 61 60 60 60 60 60 60 60 60 60 60 60 59 59 59 58 58 58 58 57 57 57 57 57 58 58 58 58 59 59
58 58 59 59 60 61 61 61 61 62 62 62 62 62 62 63 63 63 63 62 62 62 63 63 63 63 63 63 64 64 64 63 63 63 62 62 61 61 61 61 61 61 61 61 61 61 61 61 60 61 61 61 61 61 61 61 61 61 61 60 61 61 61 61 61 61 60 60 60 59 59 59 59 58 58 58 57 57 57 57 58 58 58 58 58 59
59 59 59 60 60 61 61 62 62 62 61 62 62 62 62 62 62 62 62 61 61 62 62 62 63 63 63 63 63 64 64 64 64 63 63 62 61 61 61 61 61 61 61 61 61 60 60 60 60 60 60 60 60 60 60 60 60 60 61 61 61 61 61 61 61 61 61 60 60 60 60 59 59 59 58 58 58 58 57 57 58 58 58 58 58 59
60 60 60 61 61 62 62 63 63 63 62 62 62 62 62 62 61 61 60 60 61 61 61 62 62 63 63 63 63 63 64 65 64 64 63 63 62 62 61 61 61 61 61 61 60 60 60 59 59 59 59 59 59 60 60 60 60 60 61 61 61 61 61 61 61 61 61 61 61 60 60 60 59 59 59 58 58 58 57 57 57 57 58 58 58 58
63 63 62 62 62 62 63 64 64 64 63 62 62 61 61 60 60 59 59 60 60 61 61 61 62 63 63 63 63 64 65 65 65 64 64 63 63 62 62 62 62 61 61 61 61 60 59 59 59 59 59 59 59 59 59 60 60 60 60 61 61 61 61 61 61 61 61 61 61 60 60 60 60 59 59 58 58 58 57 57 57 57 57 58 58 58
65 65 64 63 63 63 63 64 64 63 62 60 60 59 59 58 58 58 58 59 60 60 61 61 62 63 63 62 63 64 65 65 65 65 64 64 63 63 63 62 62 62 62 61 61 60 60 59 59 59 59 59 59 59 59 59 60 60 60 61 61 61 62 61 61 61 61 61 61 61 60 60 60 59 59 58 58 58 57 57 57 57 57 57 57 58
65 65 64 64 63 63 63 63 62 61 59 58 57 57 57 57 57 57 57 58 59 59 59 60 60 61 61 62 62 63 64 64 65 65 64 64 64 63 63 63 62 62 62 62 61 61 60 60 59 59 59 59 59 59 59 60 60 60 61 61 61 61 62 61 61 61 61 61 60 60 60 60 59 59 59 58 58 58 57 57 57 57 57 57 57 57
63 63 63 62 62 62 61 61 60 59 58 57 56 56 56 56 56 56 56 57 57 57 56 56 57 58 58 59 60 61 62 63 63 64 63 63 63 63 63 62 62 62 62 62 62 62 61 60 60 60 60 59 59 59 60 60 60 61 61 61 62 62 62 61 61 61 61 60 60 60 60 60 59 59 59 58 58 58 57 57 57 57 57 56 56 56
61 60 60 60 60 59 59 58 58 57 56 56 56 56 56 56 56 55 55 54 54 53 52 52 53 53 54 54 55 57 58 60 61 62 62 62 62 63 62 62 62 63 63 63 63 63 62 61 61 60 60 60 59 60 60 60 60 61 61 62 62 62 62 62 61 61 61 60 60 60 60 59 59 59 59 58 58 57 57 57 56 56 56 56 55 55
57 56 56 56 56 56 56 55 55 55 55 55 55 55 55 55 54 53 52 52 51 50 49 49 49 50 50 50 51 52 53 56 58 59 59 60 61 61 62 62 62 63 63 64 64 65 64 62 61 61 60 60 60 60 60 60 60 61 61 62 62 62 62 62 62 61 61 60 60 60 60 59 59 59 58 58 58 57 57 56 56 55 55 55 55 55
52 52 52 53 53 53 53 53 53 54 54 54 54 54 53 52 51 50 50 49 49 49 48 48 48 48 48 48 48 49 50 53 55 56 57 58 59 61 61 61 62 63 64 64 65 66 65 63 62 61 61 60 60 60 60 60 60 61 61 62 62 63 63 63 62 62 61 61 60 60 60 59 59 59 58 58 57 57 56 56 55 55 55 54 54 54
48 49 50 50 50 51 51 52 52 53 53 53 52 51 51 50 49 49 49 49 49 48 48 48 48 49 49 49 49 49 50 51 53 55 56 58 59 60 61 61 62 63 64 64 65 66 65 64 62 61 61 60 60 60 60 60 60 61 61 62 63 63 63 63 63 62 62 61 61 60 60 59 59 59 58 58 57 57 56 55 55 54 54 54 54 53
48 48 49 49 50 51 51 51 52 52 52 51 50 49 49 49 49 49 49 49 49 49 49 49 49 50 50 51 51 51 51 51 53 55 56 58 59 60 60 61 61 62 63 64 64 65 64 63 62 61 60 60 60 59 59 60 60 61 61 62 63 63 64 64 63 63 62 62 61 61 60 60 59 59 58 58 57 56 55 55 54 54 54 53 53 53
49 49 49 50 50 51 51 51 51 51 50 50 49 49 49 49 49 50 50 50 50 50 50 50 50 51 51 51 52 52 52 52 53 55 57 58 60 60 61 61 61 61 62 62 63 63 62 62 61 61 60 60 60 59 59 59 60 61 62 62 63 63 63 64 64 63 63 62 62 61 61 60 60 59 59 58 57 56 55 54 54 53 53 53 53 52
49 50 50 50 50 50 50 50 50 50 49 49 49 49 49 50 50 51 51 51 51 50 51 51 51 52 52 52 52 52 52 53 54 56 57 59 60 60 61 60 60 60 61 61 61 61 61 60 60 60 60 60 60 60 59 60 60 61 62 62 63 63 63 63 64 64 63 63 62 62 61 60 60 59 58 57 56 55 54 54 53 53 53 52 52 51
49 49 49 49 49 49 50 49 49 49 49 49 49 50 50 51 51 51 51 51 51 51 51 52 52 52 52 51 52 52 52 53 55 56 58 58 59 60 60 60 59 60 60 60 60 59 59 59 59 60 60 60 60 60 60 60 61 61 62 62 62 62 62 63 63 63 63 63 62 62 61 60 60 59 58 57 56 55 54 53 53 52 52 51 51 50
48 49 48 49 49 49 49 49 49 49 50 50 50 50 51 51 51 51 51 51 51 51 51 51 51 51 51 51 51 51 52 53 55 56 57 58 59 60 60 59 59 59 59 59 58 58 58 58 59 59 60 60 60 61 61 61 61 62 62 62 62 62 62 62 63 63 63 62 62 61 61 60 59 58 57 56 55 54 53 53 52 52 51 50 49 48
48 48 48 48 49 49 49 49 50 50 50 50 51 51 51 51 51 51 51 51 51 51 51 50 50 50 50 51 51 51 52 53 54 55 57 58 59 59 59 59 59 59 59 58 57 57 57 58 59 59 59 60 60 61 61 61 61 62 62 62 62 62 61 62 62 62 62 62 61 60 60 59 58 57 56 55 54 54 53 52 52 51 50 49 48 47
48 48 49 49 49 50 50 50 50 50 50 50 51 51 51 51 51 51 51 51 51 50 50 50 50 50 51 51 51 51 52 53 53 55 56 57 58 58 58 58 58 59 59 58 57 57 57 57 58 58 59 59 60 60 60 60 61 61 61 62 61 61 61 61 61 61 61 60 60 59 58 58 57 56 55 54 53 53 52 52 51 50 49 48 47 47
49 49 49 50 50 50 50 50 50 50 50 51 51 51 51 51 51 51 51 51 50 50 50 50 50 50 50 50 51 52 52 52 53 54 56 56 57 57 57 58 58 58 58 57 57 56 56 57 57 58 58 59 59 59 59 60 60 60 61 61 61 61 60 60 60 60 59 59 58 58 57 56 55 55 54 53 53 52 52 51 50 49 48 47 47 47
48 49 49 49 50 50 50 50 50 50 50 51 51 51 51 51 51 51 51 51 50 50 50 50 50 50 50 50 51 52 52 52 53 54 55 56 57 57 57 57 58 58 58 57 56 56 56 56 57 57 57 58 58 58 59 59 59 59 59 59 59 59 59 59 58 58 58 57 56 56 55 55 54 54 53 52 52 51 51 50 49 48 47 47 47 47
47 47 48 48 49 49 49 50 50 50 50 50 51 51 51 51 51 51 51 51 50 50 50 50 51 51 51 51 52 52 52 52 53 54 55 55 56 57 57 57 57 57 57 56 56 56 56 56 56 56 57 57 57 57 58 57 57 57 57 57 57 57 57 56 56 56 55 55 54 54 54 54 53 53 52 51 51 51 50 49 49 48 47 47 47 47
46 47 47 48 48 49 49 49 49 49 50 50 50 51 51 51 51 51 51 51 51 51 51 51 52 52 52 52 52 52 52 53 53 54 54 55 56 57 57 56 56 56 56 56 55 55 55 55 55 55 55 56 56 56 56 55 55 54 54 54 54 54 54 54 53 53 53 53 52 52 53 52 52 52 51 51 50 50 49 49 48 48 47 47 47 47
46 47 48 48 48 49 49 49 49 50 50 50 51 51 51 51 52 52 52 51 52 52 53 53 53 53 53 53 53 53 53 53 53 53 54 55 56 56 56 56 56 56 55 55 54 54 54 55 54 54 54 54 54 54 53 53 52 51 51 51 51 51 51 51 50 50 50 50 51 51 51 51 51 50 50 50 49 49 49 48 48 48 47 47 47 47
48 48 49 49 49 50 50 50 50 50 51 51 51 52 52 52 52 52 52 52 53 53 54 54 54 54 54 54 54 54 53 53 53 53 54 55 56 56 55 55 55 55 54 54 53 53 53 53 53 53 52 52 52 51 50 50 49 49 48 48 48 48 48 48 48 48 48 49 49 49 49 50 49 49 49 49 49 49 48 48 48 48 48 47 47 46
49 49 50 50 50 50 50 50 50 51 51 51 52 52 52 52 53 53 53 53 53 54 54 55 55 55 54 54 54 54 53 53 53 53 54 55 55 55 54 55 54 54 53 52 52 52 52 51 51 51 50 50 49 48 48 47 47 47 46 46 46 46 46 46 46 47 47 47 47 47 48 48 48 48 48 48 48 48 48 48 48 48 48 47 47 46
49 49 49 49 49 49 50 50 50 50 51 51 52 52 52 52 53 53 53 53 53 54 54 54 54 54 54 54 54 54 53 53 53 53 54 54 55 54 54 53 53 52 52 51 51 51 51 50 49 49 48 47 47 46 46 46 45 45 45 45 45 45 45 45 45 45 46 45 46 46 46 46 46 47 47 47 47 48 48 48 48 48 47 47 46 46
48 48 48 48 48 48 48 49 49 50 50 51 51 52 52 52 52 52 52 52 53 53 53 54 54 54 54 54 53 53 53 53 53 53 53 54 54 53 53 52 52 51 51 50 50 50 49 49 48 46 46 45 45 45 44 44 44 44 44 44 44 44 44 44 44 44 44 44 44 44 44 44 45 45 46 46 47 47 47 48 48 47 47 47 46 45
47 47 47 46 46 47 47 47 48 49 50 50 50 51 51 51 51 51 51 51 52 52 52 52 53 53 53 53 53 53 53 53 53 53 53 53 53 53 52 52 52 51 51 51 50 49 48 47 46 45 44 44 43 43 43 43 43 43 43 43 43 43 43 44 44 44 43 43 43 43 43 43 44 44 45 45 46 47 47 47 47 47 47 46 46 45
46 45 45 45 45 45 46 47 47 48 49 49 50 50 50 50 50 50 50 50 50 50 51 51 52 52 52 52 52 52 52 52 52 53 53 53 53 53 53 52 52 52 51 51 50 49 47 46 45 43 43 42 42 42 41 41 41 41 42 42 42 42 42 43 43 43 42 42 42 42 42 42 42 43 44 45 45 46 46 47 47 47 46 46 46 46
45 45 44 44 44 45 45 46 47 47 48 48 49 49 49 49 49 48 48 48 48 49 49 50 50 51 51 51 51 51 51 51 52 52 53 53 53 53 53 53 52 52 51 50 49 48 46 45 44 42 42 41 40 40 40 40 40 40 40 41 41 41 41 42 42 42 42 42 42 41 41 41 42 42 43 44 45 45 46 46 46 46 46 46 46 46
44 44 44 44 44 44 44 45 46 46 47 47 48 48 48 48 47 47 47 46 46 47 47 48 48 49 50 50 50 50 50 51 51 52 52 52 53 53 53 53 53 52 51 49 48 46 45 44 42 41 40 40 39 39 38 39 39 39 39 39 39 39 40 40 40 41 41 41 41 41 41 41 41 42 42 43 44 44 45 46 46 46 46 46 46 46
44 44 43 43 43 43 43 44 44 45 45 46 46 46 46 46 46 46 45 45 45 45 45 46 46 47 48 48 48 49 49 50 50 51 51 52 52 53 53 53 52 51 50 48 46 45 44 42 41 40 39 38 38 37 38 38 38 38 38 38 38 38 38 39 39 40 40 40 40 40 40 41 41 41 42 43 43 44 44 45 45 46 46 46 46 47
44 43 43 43 42 42 42 42 43 43 43 44 44 45 45 45 45 44 44 43 43 43 43 44 44 45 46 46 47 47 48 49 49 50 50 51 52 52 52 51 50 49 48 46 45 44 42 41 40 39 38 37 37 37 37 37 37 37 37 37 37 37 37 37 38 38 39 39 39 39 40 40 40 41 41 42 43 43 44 44 45 45 46 46 46 46
43 43 43 42 42 42 42 41 41 41 41 42 42 43 43 44 44 43 43 42 42 42 42 42 43 43 44 45 45 46 47 47 48 49 49 50 50 51 50 50 49 47 46 45 44 42 41 40 39 38 38 37 37 37 37 37 37 37 37 36 36 36 36 36 37 37 37 37 38 38 38 39 40 40 41 42 42 43 43 44 44 45 45 46 46 46
43 43 43 42 42 42 41 41 40 40 40 40 40 41 42 42 42 42 42 42 41 41 41 41 42 42 43 44 44 45 45 46 47 48 48 49 49 49 49 48 47 45 44 43 42 42 41 40 39 39 38 38 37 38 38 38 37 37 37 36 36 36 36 36 36 36 36 36 36 37 37 38 38 39 40 40 41 42 42 43 43 44 44 45 45 45
43 43 43 43 42 42 41 41 40 40 39 39 39 39 40 41 41 41 41 41 41 40 40 40 41 41 42 43 43 44 44 45 46 46 47 47 48 47 47 46 45 44 43 42 42 41 41 40 40 39 39 39 39 39 39 38 38 38 38 37 37 36 36 36 36 36 36 36 36 36 36 37 37 38 39 39 40 40 41 41 42 43 43 43 44 44
43 43 43 43 42 42 42 41 41 40 39 38 38 38 39 39 40 40 41 41 40 40 40 40 40 41 41 42 42 43 43 44 44 45 46 46 46 46 45 44 43 42 42 42 41 41 41 41 41 40 40 40 40 40 40 39 39 39 39 38 38 37 37 37 36 36 36 36 36 36 36 37 37 37 38 38 39 39 39 40 41 41 42 42 43 43
42 43 43 43 42 42 42 42 41 40 39 39 38 38 38 39 39 40 40 40 40 40 40 40 40 41 41 41 41 42 42 43 43 44 45 45 45 45 44 43 42 41 41 41 41 42 42 42 42 41 41 41 41 41 40 40 40 40 40 39 39 38 38 38 38 38 37 37 37 37 37 37 37 37 37 38 38 38 39 39 39 40 41 41 41 42
42 42 42 43 43 43 43 42 42 41 40 40 39 38 38 38 39 39 40 40 41 41 41 40 41 41 41 41 41 41 42 42 43 43 43 44 44 43 43 42 42 42 42 42 42 42 42 43 42 42 42 42 42 41 41 41 41 41 40 40 40 39 39 39 39 39 39 38 38 38 38 38 38 37 38 38 38 38 39 39 39 40 40 41 41 42
42 42 42 43 43 43 43 43 43 42 42 41 40 39 39 39 39 39 40 40 41 41 41 41 41 42 41 41 41 41 42 42 42 42 43 43 43 43 42 42 42 42 42 43 43 43 43 43 43 43 43 42 42 42 42 42 41 41 41 40 40 40 40 40 40 40 40 39 39 39 39 39 38 38 38 38 38 39 39 40 40 41 41 41 42 42
42 42 42 43 43 43 44 44 43 43 43 42 41 41 40 40 40 40 40 40 40 41 42 42 42 42 42 42 42 42 42 42 42 42 43 43 43 43 42 43 43 43 44 44 44 44 44 44 44 43 43 43 43 42 42 42 41 41 41 41 40 40 40 40 40 40 40 40 40 40 40 39 39 39 39 39 39 40 40 41 41 42 42 42 42 43
42 42 43 43 43 44 44 44 44 44 44 43 43 42 41 41 40 40 40 40 40 41 42 42 43 43 43 43 43 43 43 43 43 44 44 44 44 44 44 44 44 45 45 45 45 45 45 44 44 44 44 43 43 42 42 41 41 41 40 40 40 40 40 40 40 40 40 40 40 40 40 40 40 40 39 39 40 40 41 41 42 43 43 43 43 44
43 43 43 43 43 43 44 44 44 44 44 44 44 43 43 42 42 41 41 40 40 41 41 42 42 43 43 44 44 44 44 45 45 45 45 45 45 45 45 46 46 46 46 46 45 45 45 44 44 44 43 43 42 42 41 41 41 40 40 40 40 40 39 39 39 40 39 39 39 39 40 40 40 40 40 40 40 41 41 42 43 43 44 44 44 45
43 43 43 43 43 43 44 44 44 44 44 45 45 44 44 44 43 42 42 41 41 41 41 41 41 42 43 43 44 44 45 45 46 46 46 46 46 46 46 46 46 46 46 46 45 45 44 43 43 43 42 42 42 41 40 40 40 40 40 39 39 39 39 39 39 39 39 39 39 39 39 39 40 40 40 40 40 41 41 42 43 44 44 45 45 46
Wind_Direction
242 242 241 241 241 241 242 242 242 242 242 242 243 243 243 243 244 244 245 245 245 246 246 246 247 247 247 248 248 248 248 248 248 248 248 248 248 248 249 249 249 249 249 250 250 250 250 251 251 251 251 251 251 251 251 251 251 251 251 251 251 251 251 251 251 251 251 252 252 253 253 254 254 254 255 255 256 256 256 257 257 257 257 257 257 257
242 242 242 241 241 241 241 242 241 241 242 242 242 243 243 243 244 244 244 245 245 246 246 246 247 247 247 248 248 248 248 248 248 248 248 248 248 248 248 248 248 249 249 249 249 250 250 250 251 251 251 251 251 251 251 251 251 251 251 250 250 250 250 250 250 250 251 251 251 252 252 253 253 254 254 254 255 255 255 256 256 256 256 256 256 256
243 242 242 242 241 241 241 242 242 241 241 242 242 242 243 243 243 244 244 245 245 246 246 247 247 247 248 248 248 248 248 248 248 248 247 247 248 248 248 248 248 248 249 249 249 249 250 250 250 250 251 251 251 251 251 251 251 251 251 250 250 250 250 250 250 250 250 250 251 251 251 252 252 253 253 254 254 254 255 255 255 255 255 255 255 255
243 243 243 242 242 242 242 242 242 241 241 242 242 242 242 243 243 244 244 245 245 246 246 247 247 248 248 248 248 248 248 248 248 248 248 248 248 248 248 248 248 249 249 249 249 249 249 250 250 250 250 251 251 251 251 251 251 251 251 251 250 250 250 250 249 249 250 250 250 250 251 251 252 252 252 253 253 253 254 254 254 254 254 254 254 254
243 243 243 242 242 242 242 242 242 242 242 242 242 242 242 243 243 244 244 245 245 246 247 247 248 248 248 249 249 249 249 249 249 248 248 248 248 248 249 249 249 249 249 249 249 249 249 250 250 250 250 250 251 251 251 251 251 251 251 251 250 250 250 249 249 249 249 249 250 250 250 251 251 252 252 252 252 253 253 253 253 253 253 253 254 254
243 242 243 242 242 242 242 242 242 242 242 242 243 243 243 243 243 244 244 245 245 246 247 247 247 248 248 248 248 249 249 249 249 249 249 249 249 249 249 249 249 249 249 249 249 249 250 250 250 250 250 250 251 251 251 251 251 251 251 250 250 250 250 249 249 249 249 249 250 250 250 251 251 251 252 252 252 252 252 253 253 253 253 253 253 253
242 242 242 243 243 243 243 243 243 243 243 243 243 243 244 244 244 244 245 245 245 246 246 247 247 247 247 247 248 248 248 248 248 249 249 249 249 249 250 250 250 250 250 250 250 250 250 250 250 250 250 250 251 251 251 251 251 251 250 250 250 250 249 249 249 249 249 249 249 250 250 250 251 251 251 251 252 252 252 252 252 252 252 253 253 253
242 242 242 243 243 244 244 244 244 244 244 244 244 244 245 245 245 245 245 245 246 246 246 247 247 246 246 246 247 247 247 248 248 248 248 249 249 250 250 250 250 250 250 250 250 250 250 250 250 250 250 250 250 250 250 250 250 250 250 250 249 249 249 249 248 249 249 249 249 249 250 250 250 251 251 251 251 251 252 252 252 252 252 252 253 253
241 242 242 243 244 245 245 246 246 245 245 245 245 246 246 246 246 246 246 246 246 247 247 247 247 246 246 246 246 247 247 247 248 248 248 248 249 249 250 250 250 250 250 250 250 250 250 250 250 250 250 250 250 250 250 250 250 249 249 249 248 248 248 248 248 248 248 249 249 249 250 250 250 250 250 251 251 251 251 252 252 252 252 253 253 252
241 242 243 243 244 245 246 247 247 247 246 246 247 247 247 247 247 247 247 247 248 248 248 248 248 247 246 246 246 247 248 248 248 248 248 248 248 249 249 249 250 250 250 249 249 249 249 249 249 249 250 250 249 249 249 249 249 249 248 248 248 247 247 247 247 248 248 248 249 249 249 250 250 250 250 250 251 251 251 252 252 252 253 253 253 252
242 242 243 243 244 245 246 247 248 248 248 247 247 247 247 247 248 248 249 249 250 250 250 249 249 248 247 247 247 247 248 248 248 248 248 248 248 248 248 249 249 249 249 249 249 248 249 249 249 249 249 249 249 249 249 249 248 248 248 247 247 247 247 247 247 247 247 248 248 249 249 249 250 250 250 250 251 251 251 252 252 252 253 253 253 252
242 242 243 244 245 246 246 247 248 249 249 248 248 248 248 248 249 250 251 251 252 251 251 250 250 249 248 248 247 247 248 248 248 248 247 247 247 247 247 248 248 248 248 248 248 248 248 248 248 249 249 249 249 249 248 248 248 248 247 247 246 246 246 246 246 247 247 248 248 249 249 249 249 250 250 250 251 251 251 252 252 252 253 253 253 252
243 243 244 245 246 247 247 248 249 250 249 249 248 248 249 249 250 251 251 252 252 251 251 250 250 249 249 248 248 248 248 247 247 247 246 246 246 246 247 247 248 248 248 247 247 247 247 247 248 248 248 248 248 248 248 248 248 247 247 246 246 246 246 246 246 247 247 247 248 248 249 249 249 250 250 250 251 251 252 252 252 252 253 253 253 252
244 244 245 246 247 247 248 249 249 250 249 248 248 248 249 249 250 250 250 250 250 249 249 249 249 248 248 248 247 247 247 246 246 245 244 244 245 245 246 247 247 247 247 247 247 247 247 247 247 248 248 248 248 248 248 248 247 247 247 246 246 246 246 246 246 246 247 247 248 248 248 249 249 250 250 250 251 251 252 252 252 252 252 253 252 252
244 244 245 246 246 247 247 248 248 248 248 247 247 247 248 248 248 247 246 246 246 246 245 246 246 247 247 246 246 246 246 245 244 243 242 242 243 244 245 246 247 247 247 247 246 246 246 246 246 247 248 248 248 248 248 248 247 247 247 246 246 246 246 246 246 246 246 247 247 248 248 249 249 250 250 251 251 251 252 252 252 252 252 253 253 253
242 243 243 244 245 245 246 246 246 246 245 245 245 245 245 245 244 244 243 242 242 243 243 243 244 246 246 246 246 247 247 246 244 242 240 241 242 244 245 245 246 246 246 246 246 246 246 245 246 246 247 247 248 248 248 248 248 247 247 247 246 246 246 246 246 246 246 246 247 247 248 249 249 250 250 251 251 251 251 252 252 252 253 253 253 253
240 241 241 242 242 243 243 243 243 243 243 243 242 242 241 241 241 241 240 241 241 242 242 243 244 245 246 245 246 247 249 248 247 244 242 241 242 243 244 245 245 246 246 245 245 245 245 245 245 246 247 247 248 248 248 248 248 248 247 247 247 246 246 246 246 246 246 246 246 247 248 249 249 250 251 251 251 251 251 252 252 252 253 253 253 253
240 240 240 240 241 241 241 241 241 241 240 240 240 239 239 239 240 240 240 241 242 242 243 243 244 244 245 245 244 245 247 249 249 248 246 244 244 244 244 244 244 245 244 244 244 244 244 244 245 245 246 247 248 248 248 248 248 248 247 247 247 247 246 246 246 246 246 246 246 247 248 249 249 250 251 251 251 251 251 252 252 253 253 253 253 252
241 240 240 239 239 239 238 238 238 239 239 238 238 238 238 239 240 241 242 242 242 243 243 244 244 245 245 245 245 245 246 247 249 250 250 249 247 246 245 245 244 244 244 244 244 244 244 244 244 245 246 247 248 248 249 249 248 248 248 247 247 247 247 246 246 246 246 246 246 247 247 248 249 250 250 251 251 251 251 252 253 253 253 253 252 252
239 238 238 238 237 237 237 237 237 237 237 237 237 238 239 240 241 242 243 243 244 244 244 244 244 245 245 246 246 246 246 246 246 248 249 249 249 248 247 246 245 244 244 244 244 244 244 244 244 245 246 247 248 248 249 249 249 248 248 248 247 247 247 247 246 246 246 246 246 247 247 248 249 250 250 250 251 251 252 252 253 253 252 252 251 251
237 236 236 236 236 236 236 236 236 237 237 237 238 239 240 241 242 243 244 244 245 245 244 244 245 245 245 246 246 246 246 245 245 246 247 248 249 248 248 247 246 245 245 244 244 244 244 244 244 245 246 247 248 249 249 249 249 249 248 248 248 248 247 247 247 246 246 246 246 246 247 248 249 249 250 250 250 251 252 252 252 252 251 250 250 248
235 235 235 235 235 235 236 236 236 236 237 238 239 240 241 242 243 244 245 245 245 245 245 245 245 246 246 246 246 246 246 245 245 246 247 248 248 248 248 247 246 246 245 245 244 244 244 244 244 245 246 247 248 249 249 250 249 249 249 249 249 248 248 247 247 246 246 246 246 246 247 248 248 249 249 250 250 251 251 251 251 250 249 248 247 246
235 235 235 235 235 235 236 236 236 237 238 239 240 241 242 243 244 245 245 245 246 246 246 247 247 247 247 247 247 246 246 246 246 246 246 247 248 248 247 247 247 246 246 245 244 244 244 244 244 245 246 247 248 249 250 250 250 250 250 250 249 249 249 248 247 246 246 245 246 246 247 247 248 249 249 250 250 250 250 250 249 248 246 245 244 243
234 235 235 235 235 236 236 237 238 239 240 241 242 243 244 245 245 246 246 246 247 247 247 248 248 248 248 248 247 246 246 246 246 246 246 247 247 247 247 247 246 246 245 245 244 244 244 244 245 246 246 247 248 249 250 250 251 250 250 250 250 249 249 248 247 246 245 245 245 246 247 247 248 248 249 249 249 249 249 248 246 245 243 242 241 240
234 235 236 236 236 237 237 238 240 241 242 244 245 245 246 247 247 247 247 247 247 247 248 248 248 248 248 248 247 247 247 247 246 246 246 246 247 247 247 246 246 245 245 245 244 244 245 245 246 246 247 248 249 250 250 251 251 251 250 250 250 249 249 248 247 246 245 245 245 246 247 247 248 248 249 249 248 247 246 245 243 242 240 239 238 238
234 235 236 237 237 238 239 240 241 243 244 245 246 247 248 248 248 248 248 248 248 248 248 248 248 248 249 249 249 248 248 247 247 247 246 246 246 246 246 246 246 245 245 244 244 245 246 246 247 247 248 249 250 250 251 251 251 251 250 250 250 249 248 247 246 245 244 244 245 246 247 247 248 248 248 247 246 245 243 242 240 239 237 236 236 236
235 236 237 238 239 239 240 241 242 243 244 246 247 248 249 249 249 249 249 248 248 248 248 248 248 249 249 249 249 249 248 248 247 247 246 246 246 246 246 246 246 245 245 245 245 246 246 247 248 248 249 250 250 251 251 251 250 250 250 249 249 248 247 246 245 244 244 244 245 246 246 247 247 247 246 245 244 242 240 239 237 236 235 234 235 235
236 237 238 239 240 241 241 242 243 244 245 246 247 249 249 250 249 249 249 249 249 249 248 248 248 248 248 248 248 248 248 248 247 246 246 246 246 246 246 246 246 246 246 246 246 246 247 248 249 249 250 250 251 251 250 250 250 249 249 248 247 246 245 244 243 243 243 244 244 245 246 246 246 245 244 242 241 239 238 236 235 234 233 233 234 235
237 238 239 240 241 242 243 243 244 245 247 248 249 250 250 250 250 249 249 249 249 248 247 247 247 247 247 247 248 248 247 247 246 246 246 245 245 245 246 247 247 247 247 247 247 247 248 248 249 249 250 250 250 250 249 249 248 247 247 246 245 244 243 242 242 242 242 243 244 244 244 244 244 243 241 240 238 237 235 234 233 232 232 232 233 235
237 238 239 240 241 242 243 245 246 247 248 249 250 251 251 251 250 249 249 249 247 246 246 246 246 246 246 246 246 246 246 246 246 246 245 245 245 245 246 246 247 247 248 248 249 249 248 248 249 249 249 249 249 248 248 247 246 245 244 243 242 241 241 241 241 241 241 242 242 243 243 242 242 241 239 238 236 235 233 232 231 231 231 232 233 235
237 238 239 240 241 243 244 245 246 248 249 250 250 251 251 250 249 249 248 247 246 245 245 245 245 245 245 245 245 245 246 245 245 245 245 244 244 244 245 246 246 247 248 248 249 249 249 248 248 248 248 248 247 246 245 244 243 242 241 241 240 240 240 240 240 240 240 241 241 241 241 240 240 238 237 236 234 233 232 231 231 231 231 232 233 235
237 238 239 240 241 243 244 245 246 247 248 249 249 249 249 248 248 247 246 245 244 244 244 244 244 244 245 245 245 245 245 245 245 244 244 243 243 244 244 245 246 247 247 248 249 249 249 248 247 247 246 245 244 243 242 241 241 240 240 239 239 239 239 239 239 239 239 239 239 239 239 239 238 237 236 234 233 232 231 231 230 231 231 233 234 235
238 239 240 241 242 243 244 245 246 247 247 247 247 247 247 246 246 245 244 244 243 243 243 243 244 244 244 244 244 244 244 244 244 243 243 242 242 243 243 244 245 246 246 247 247 248 248 247 246 245 244 243 242 241 240 239 239 239 239 239 239 239 239 239 238 238 238 238 238 238 238 237 236 235 234 233 232 231 231 230 231 231 232 233 235 236
239 240 241 242 243 244 245 246 246 246 246 246 245 245 244 244 243 243 243 242 242 242 242 243 243 243 243 243 243 243 243 243 243 242 242 241 241 241 242 243 244 244 245 245 246 246 246 245 244 243 241 241 240 239 239 238 238 239 239 239 239 239 238 238 237 237 237 237 237 237 237 236 235 234 233 232 232 231 231 231 231 232 233 234 236 237
239 240 241 242 243 244 245 245 245 245 245 244 244 243 242 242 242 242 241 241 241 241 241 241 242 242 241 241 241 242 242 242 242 241 240 239 239 240 240 241 242 243 243 243 244 244 244 243 242 241 239 239 238 238 238 238 238 238 238 238 238 238 237 237 236 236 236 236 236 236 236 235 234 234 233 232 232 231 232 232 232 233 234 235 237 238
240 241 242 243 243 244 244 244 244 244 243 242 242 241 241 241 241 241 241 241 241 241 241 241 240 240 240 240 240 240 240 240 240 239 239 238 237 237 238 239 239 240 241 241 242 242 242 241 240 239 238 237 237 237 237 237 237 237 237 237 237 236 236 235 235 235 235 235 235 235 235 234 234 233 233 233 232 232 232 233 234 234 235 237 238 239
240 241 242 242 243 243 243 243 243 242 242 241 240 240 240 240 240 240 240 240 241 241 241 240 240 239 239 239 239 239 239 239 238 238 237 236 235 235 236 236 237 238 239 240 240 240 240 239 238 237 236 236 235 235 235 236 236 236 236 236 235 235 235 235 234 234 234 234 234 234 234 234 234 234 233 233 233 233 233 234 235 235 236 238 239 240
240 241 241 242 242 242 242 242 241 241 240 240 239 239 239 239 239 239 240 240 241 241 241 240 240 239 239 238 238 238 238 237 237 236 235 234 234 234 234 235 236 237 238 238 238 238 237 236 236 235 234 234 234 234 234 235 235 235 235 235 234 234 234 234 234 234 234 234 234 234 234 234 234 234 234 234 234 234 234 235 235 236 237 238 239 240
240 240 241 241 241 241 241 241 240 240 240 239 239 238 238 238 238 239 239 240 240 241 241 240 240 239 238 238 237 237 237 236 235 235 234 233 233 233 233 234 235 236 236 237 236 236 235 234 233 233 232 232 233 233 233 234 234 234 234 234 234 234 234 234 234 235 235 235 235 235 235 235 235 234 234 234 234 234 235 235 236 237 238 239 240 241
240 240 240 240 240 240 240 240 240 239 239 239 238 238 238 237 237 238 238 239 239 240 240 240 240 239 238 238 237 236 236 235 235 234 233 233 233 233 233 234 234 235 235 235 234 234 233 232 232 231 231 231 232 233 233 234 234 234 234 234 234 234 234 234 235 235 235 235 235 235 235 235 235 235 235 235 235 235 236 236 237 238 239 240 241 242
240 239 239 239 240 239 240 239 239 239 239 238 238 238 237 237 237 237 237 238 238 239 239 239 239 239 238 237 237 236 235 234 234 233 233 232 232 232 233 233 233 233 233 232 232 232 231 231 230 230 230 230 231 232 233 234 234 234 234 234 234 234 235 235 235 235 236 236 236 236 236 236 236 236 236 236 236 237 237 238 238 239 240 241 242 243
240 240 239 239 239 239 239 239 239 239 239 238 238 238 237 237 237 237 237 237 237 238 238 238 238 238 237 237 236 235 235 234 233 233 232 232 232 232 232 232 231 231 231 230 230 230 230 230 229 229 229 230 231 232 233 233 234 234 235 235 235 235 235 236 236 236 236 236 236 237 237 237 237 237 237 237 238 238 239 239 240 241 241 242 243 244
240 239 239 239 239 239 240 240 240 240 239 239 238 238 238 237 237 237 237 237 237 237 237 237 237 238 237 237 236 235 235 234 233 232 232 231 231 230 230 230 229 229 229 229 229 229 229 229 229 229 229 229 230 231 232 233 234 235 235 236 236 236 236 237 237 237 238 238 238 238 238 238 239 239 239 239 239 240 240 241 241 242 243 243 244 245
239 239 239 239 239 239 240 240 241 241 240 240 239 239 238 238 237 237 237 236 236 236 236 236 236 237 237 237 236 236 235 234 233 232 232 231 230 229 229 228 228 228 229 229 230 230 229 229 229 229 229 230 230 231 232 234 235 236 236 237 237 237 238 238 238 239 239 239 239 239 240 240 240 241 241 241 242 242 242 243 243 244 244 245 245 246
239 239 239 239 240 240 240 241 241 241 241 241 240 240 239 238 238 237 237 236 236 236 236 236 236 236 236 236 236 235 235 234 233 232 232 231 230 229 228 227 227 228 229 229 230 230 230 230 230 230 230 230 231 232 233 234 235 236 237 238 239 239 239 239 240 240 240 240 240 241 241 242 242 243 243 244 244 244 245 245 245 246 246 247 247 248
239 239 239 240 240 240 240 241 241 241 241 241 241 240 240 239 239 238 237 237 236 236 236 236 236 236 236 236 236 235 235 234 233 233 232 231 230 229 228 227 227 228 229 230 231 231 231 231 231 230 230 231 232 232 233 235 236 237 238 239 239 239 240 240 241 241 241 241 241 242 242 243 243 244 245 246 246 247 247 248 248 248 249 249 250 250
239 239 239 240 240 240 240 240 241 241 241 241 241 240 240 239 239 238 238 237 236 236 236 236 236 236 236 236 235 235 235 234 233 233 232 231 230 229 228 228 229 229 230 231 232 232 231 231 231 231 231 231 232 233 234 235 236 237 238 239 239 240 240 241 241 242 242 243 243 243 244 244 245 246 246 247 248 249 249 250 250 251 251 252 252 252
239 239 239 240 240 240 240 240 240 240 240 240 240 240 239 239 239 238 238 237 236 236 236 236 236 236 235 235 235 235 235 234 234 233 232 232 231 230 230 230 230 231 232 232 232 232 232 231 231 231 232 232 232 233 234 235 236 237 238 239 239 240 240 241 242 243 243 244 244 245 245 246 246 247 248 249 250 251 251 252 253 253 253 254 254 255
239 239 239 239 240 240 240 240 240 240 240 240 240 239 239 238 238 237 237 236 236 235 235 235 235 235 235 235 235 234 234 234 234 233 233 232 232 232 232 232 232 232 232 232 232 232 232 231 231 232 232 232 233 233 234 235 236 237 237 238 239 240 240 241 242 243 244 245 246 246 247 247 248 249 249 250 251 252 253 254 254 255 255 255 256 256
239 239 239 239 239 239 239 239 239 239 239 239 239 239 238 238 237 236 236 235 235 234 234 234 234 234 234 234 234 234 234 234 233 233 233 233 233 233 233 232 232 232 232 232 231 231 231 231 231 231 232 232 233 233 234 234 235 236 237 238 239 240 241 242 243 244 244 246 247 247 248 249 250 250 251 252 253 254 254 255 256 256 256 257 257 258
240 239 239 239 239 239 239 239 239 239 239 239 238 238 238 237 236 236 235 234 234 233 233 233 233 233 233 233 233 233 232 232 232 232 232 232 232 232 232 232 232 231 231 230 230 230 230 230 230 231 231 232 233 233 234 234 235 236 237 238 239 240 241 242 243 244 245 246 247 249 250 250 251 252 253 253 254 255 256 257 257 258 258 258 258 259